| time (UTC) | temp F | wind direction | speed MPH | gust MPH | rain 1hr in | rain 24hr in | rain mn in | humidity % | barometer mb |
| 20260505095620 | 54 | 48 | 0.0 | 0.0 | 0.00 | 0.00 | 0.00 | 94 | 1009.8 |
| 20260505095117 | 54 | 48 | 0.0 | 0.0 | 0.00 | 0.00 | 0.00 | 94 | 1009.8 |
| 20260505094614 | 54 | 48 | 0.0 | 0.0 | 0.00 | 0.00 | 0.00 | 94 | 1009.8 |
| 20260505094110 | 54 | 48 | 0.0 | 0.0 | 0.00 | 0.00 | 0.00 | 94 | 1009.8 |
| 20260505093606 | 54 | 28 | 0.0 | 0.0 | 0.00 | 0.00 | 0.00 | 93 | 1010.1 |
| 20260505093104 | 54 | 36 | 0.0 | 0.0 | 0.00 | 0.00 | 0.00 | 93 | 1010.1 |
| 20260505092601 | 54 | 113 | 0.0 | 0.0 | 0.00 | 0.00 | 0.00 | 92 | 1010.1 |
| 20260505092100 | 54 | 113 | 0.0 | 0.0 | 0.00 | 0.00 | 0.00 | 92 | 1010.4 |
| 20260505091555 | 54 | 113 | 0.0 | 0.0 | 0.00 | 0.00 | 0.00 | 92 | 1010.1 |
| 20260505091054 | 54 | 117 | 0.0 | 0.0 | 0.00 | 0.00 | 0.00 | 92 | 1010.4 |
| 20260505090552 | 54 | 117 | 0.0 | 0.0 | 0.00 | 0.00 | 0.00 | 92 | 1010.4 |
| 20260505090049 | 54 | 117 | 0.0 | 0.0 | 0.00 | 0.00 | 0.00 | 93 | 1010.4 |
| 20260505085547 | 54 | 112 | 0.0 | 1.0 | 0.00 | 0.00 | 0.00 | 93 | 1010.4 |
| 20260505085045 | 54 | 144 | 0.0 | 1.0 | 0.00 | 0.00 | 0.00 | 93 | 1010.8 |
| 20260505084543 | 54 | 140 | 1.0 | 1.0 | 0.00 | 0.00 | 0.00 | 92 | 1010.8 |
| 20260505084041 | 54 | 111 | 0.0 | 1.0 | 0.00 | 0.00 | 0.00 | 93 | 1010.8 |
| 20260505083537 | 54 | 137 | 0.0 | 0.0 | 0.00 | 0.00 | 0.00 | 92 | 1010.8 |
| 20260505083034 | 54 | 103 | 0.0 | 0.0 | 0.00 | 0.00 | 0.00 | 92 | 1010.8 |
| 20260505082530 | 54 | 117 | 1.0 | 2.0 | 0.00 | 0.00 | 0.00 | 92 | 1010.8 |
| 20260505082027 | 54 | 98 | 0.0 | 0.0 | 0.00 | 0.00 | 0.00 | 92 | 1010.8 |
| 20260505081523 | 54 | 96 | 0.0 | 0.0 | 0.00 | 0.00 | 0.00 | 92 | 1010.8 |
| 20260505081020 | 54 | 102 | 0.0 | 0.0 | 0.00 | 0.00 | 0.00 | 92 | 1010.8 |
| 20260505080517 | 54 | 83 | 1.0 | 1.0 | 0.00 | 0.00 | 0.00 | 92 | 1010.8 |
| 20260505080013 | 54 | 84 | 0.0 | 0.0 | 0.00 | 0.00 | 0.00 | 92 | 1010.8 |
| 20260505075509 | 54 | 84 | 0.0 | 0.0 | 0.00 | 0.00 | 0.00 | 92 | 1010.8 |
| 20260505075006 | 54 | 84 | 0.0 | 0.0 | 0.00 | 0.00 | 0.00 | 91 | 1011.1 |
| 20260505074504 | 54 | 84 | 0.0 | 0.0 | 0.00 | 0.00 | 0.00 | 91 | 1010.8 |
| 20260505074001 | 54 | 84 | 0.0 | 0.0 | 0.00 | 0.00 | 0.00 | 91 | 1011.1 |
| 20260505073458 | 54 | 327 | 0.0 | 0.0 | 0.00 | 0.00 | 0.00 | 91 | 1011.1 |
| 20260505072955 | 55 | 327 | 0.0 | 1.0 | 0.00 | 0.00 | 0.00 | 91 | 1011.1 |
| 20260505072451 | 55 | 327 | 0.0 | 0.0 | 0.00 | 0.00 | 0.00 | 90 | 1010.8 |
| 20260505071948 | 55 | 327 | 0.0 | 0.0 | 0.00 | 0.00 | 0.00 | 90 | 1011.1 |
| 20260505071443 | 55 | 326 | 0.0 | 0.0 | 0.00 | 0.00 | 0.00 | 90 | 1011.1 |
| 20260505070942 | 55 | 327 | 0.0 | 0.0 | 0.00 | 0.00 | 0.00 | 90 | 1011.1 |
| 20260505070438 | 55 | 327 | 0.0 | 0.0 | 0.00 | 0.00 | 0.00 | 90 | 1011.1 |
| 20260505065934 | 55 | 327 | 0.0 | 0.0 | 0.00 | 0.00 | 0.00 | 90 | 1011.1 |
| 20260505065431 | 55 | 327 | 0.0 | 0.0 | 0.00 | 0.00 | 0.00 | 90 | 1011.1 |
| 20260505064927 | 55 | 327 | 0.0 | 0.0 | 0.00 | 0.00 | 0.00 | 90 | 1011.1 |
| 20260505064425 | 55 | 326 | 0.0 | 0.0 | 0.00 | 0.00 | 0.00 | 91 | 1011.1 |
| 20260505063923 | 55 | 326 | 0.0 | 0.0 | 0.00 | 0.00 | 0.00 | 91 | 1011.1 |
| 20260505063419 | 55 | 327 | 0.0 | 0.0 | 0.00 | 0.00 | 0.00 | 91 | 1011.1 |
| 20260505062915 | 55 | 327 | 0.0 | 0.0 | 0.00 | 0.00 | 0.00 | 91 | 1011.1 |
| 20260505062413 | 55 | 327 | 0.0 | 0.0 | 0.00 | 0.00 | 0.00 | 91 | 1011.1 |
| 20260505061909 | 55 | 326 | 0.0 | 0.0 | 0.00 | 0.00 | 0.00 | 91 | 1011.1 |
| 20260505061408 | 55 | 326 | 0.0 | 0.0 | 0.00 | 0.00 | 0.00 | 91 | 1011.1 |
| 20260505060905 | 55 | 327 | 0.0 | 0.0 | 0.00 | 0.00 | 0.00 | 91 | 1011.5 |
| 20260505060402 | 55 | 308 | 0.0 | 0.0 | 0.00 | 0.00 | 0.00 | 91 | 1011.1 |
| 20260505055858 | 55 | 251 | 0.0 | 0.0 | 0.00 | 0.00 | 0.00 | 91 | 1011.1 |
| 20260505055354 | 55 | 214 | 0.0 | 0.0 | 0.00 | 0.00 | 0.00 | 91 | 1011.1 |
| 20260505054851 | 55 | 215 | 0.0 | 0.0 | 0.00 | 0.00 | 0.00 | 91 | 1011.1 |
| 20260505054348 | 55 | 211 | 0.0 | 0.0 | 0.00 | 0.00 | 0.00 | 91 | 1011.1 |
| 20260505053847 | 55 | 186 | 0.0 | 0.0 | 0.00 | 0.00 | 0.00 | 91 | 1011.1 |
| 20260505053343 | 55 | 185 | 0.0 | 0.0 | 0.00 | 0.00 | 0.00 | 90 | 1011.1 |
| 20260505052840 | 55 | 239 | 0.0 | 0.0 | 0.00 | 0.00 | 0.00 | 90 | 1011.1 |
| 20260505052337 | 55 | 221 | 0.0 | 0.0 | 0.00 | 0.00 | 0.00 | 90 | 1011.1 |
| 20260505051834 | 55 | 219 | 0.0 | 0.0 | 0.00 | 0.00 | 0.00 | 89 | 1011.1 |
| 20260505051331 | 55 | 244 | 0.0 | 0.0 | 0.00 | 0.00 | 0.00 | 89 | 1011.5 |
| 20260505050829 | 55 | 223 | 0.0 | 0.0 | 0.00 | 0.00 | 0.00 | 89 | 1011.5 |
| 20260505050328 | 55 | 227 | 0.0 | 0.0 | 0.00 | 0.00 | 0.00 | 88 | 1011.1 |
| 20260505041757 | 55 | 154 | 0.0 | 0.0 | 0.00 | 0.00 | 0.00 | 86 | 1011.1 |
| 20260505041255 | 56 | 209 | 0.0 | 0.0 | 0.00 | 0.00 | 0.00 | 86 | 1011.1 |
| 20260505040752 | 56 | 131 | 0.0 | 1.0 | 0.00 | 0.00 | 0.00 | 87 | 1011.1 |
| 20260505040249 | 56 | 219 | 0.0 | 0.0 | 0.00 | 0.00 | 0.00 | 87 | 1011.1 |
| 20260505035746 | 56 | 162 | 0.0 | 0.0 | 0.00 | 0.00 | 0.00 | 88 | 1011.1 |
| 20260505035242 | 56 | 157 | 0.0 | 0.0 | 0.00 | 0.00 | 0.00 | 88 | 1011.1 |
| 20260505034739 | 56 | 230 | 0.0 | 0.0 | 0.00 | 0.00 | 0.00 | 88 | 1010.8 |
| 20260505034236 | 56 | 157 | 0.0 | 0.0 | 0.00 | 0.00 | 0.00 | 88 | 1010.8 |
| 20260505033732 | 56 | 102 | 0.0 | 0.0 | 0.00 | 0.00 | 0.00 | 87 | 1011.1 |
| 20260505033230 | 56 | 207 | 1.0 | 2.0 | 0.00 | 0.00 | 0.00 | 87 | 1011.1 |
| 20260505032728 | 56 | 35 | 0.0 | 1.0 | 0.00 | 0.00 | 0.00 | 88 | 1011.1 |
| 20260505032224 | 56 | 52 | 1.0 | 2.0 | 0.00 | 0.00 | 0.00 | 90 | 1011.1 |
| 20260505031721 | 56 | 108 | 1.0 | 1.0 | 0.00 | 0.00 | 0.00 | 90 | 1010.8 |
| 20260505031217 | 56 | 196 | 0.0 | 1.0 | 0.00 | 0.00 | 0.00 | 90 | 1010.8 |
| 20260505030715 | 56 | 206 | 0.0 | 1.0 | 0.00 | 0.00 | 0.00 | 90 | 1010.8 |
| 20260505030210 | 57 | 113 | 0.0 | 0.0 | 0.00 | 0.00 | 0.00 | 89 | 1010.8 |
| 20260505025707 | 57 | 199 | 0.0 | 1.0 | 0.00 | 0.00 | 0.00 | 89 | 1010.4 |
| 20260505025205 | 57 | 143 | 0.0 | 0.0 | 0.00 | 0.00 | 0.00 | 88 | 1010.4 |
| 20260505024703 | 57 | 247 | 0.0 | 0.0 | 0.00 | 0.00 | 0.00 | 87 | 1010.4 |
| 20260505024159 | 58 | 299 | 0.0 | 1.0 | 0.00 | 0.00 | 0.00 | 86 | 1010.4 |
| 20260505023657 | 58 | 151 | 0.0 | 0.0 | 0.00 | 0.00 | 0.00 | 86 | 1010.4 |
| 20260505023154 | 58 | 208 | 0.0 | 0.0 | 0.00 | 0.00 | 0.00 | 85 | 1010.4 |
| 20260505022652 | 59 | 53 | 0.0 | 1.0 | 0.00 | 0.00 | 0.00 | 85 | 1010.8 |
| 20260505022149 | 59 | 275 | 1.0 | 2.0 | 0.00 | 0.00 | 0.00 | 84 | 1010.4 |
| 20260505021645 | 59 | 120 | 1.0 | 2.0 | 0.00 | 0.00 | 0.00 | 83 | 1010.4 |
| 20260505021142 | 60 | 122 | 0.0 | 0.0 | 0.00 | 0.00 | 0.00 | 83 | 1010.4 |
| 20260505020637 | 60 | 213 | 0.0 | 0.0 | 0.00 | 0.00 | 0.00 | 83 | 1010.4 |
| 20260505020133 | 60 | 197 | 0.0 | 0.0 | 0.00 | 0.00 | 0.00 | 83 | 1010.4 |
| 20260505015631 | 61 | 278 | 0.0 | 0.0 | 0.00 | 0.00 | 0.00 | 82 | 1010.8 |
| 20260505015127 | 61 | 120 | 1.0 | 3.0 | 0.00 | 0.00 | 0.00 | 81 | 1010.4 |
| 20260505014624 | 61 | 209 | 0.0 | 1.0 | 0.00 | 0.00 | 0.00 | 81 | 1010.4 |
| 20260505014121 | 61 | 251 | 0.0 | 1.0 | 0.00 | 0.00 | 0.00 | 80 | 1010.4 |
| 20260505013619 | 61 | 55 | 0.0 | 0.0 | 0.00 | 0.00 | 0.00 | 78 | 1010.8 |
| 20260505013116 | 60 | 346 | 2.0 | 3.0 | 0.00 | 0.00 | 0.00 | 77 | 1010.8 |
| 20260505012614 | 60 | 54 | 2.0 | 2.0 | 0.00 | 0.00 | 0.00 | 79 | 1010.8 |
| 20260505012111 | 60 | 193 | 0.0 | 0.0 | 0.00 | 0.00 | 0.00 | 80 | 1010.8 |
| 20260505011606 | 60 | 99 | 0.0 | 0.0 | 0.00 | 0.00 | 0.00 | 81 | 1010.8 |
| 20260505011104 | 60 | 171 | 0.0 | 0.0 | 0.00 | 0.00 | 0.00 | 83 | 1010.8 |
| 20260505010604 | 60 | 233 | 1.0 | 1.0 | 0.00 | 0.00 | 0.00 | 84 | 1011.1 |
| 20260505005557 | 61 | 219 | 1.0 | 1.0 | 0.00 | 0.00 | 0.00 | 84 | 1011.1 |
| 20260505005055 | 61 | 250 | 2.0 | 2.0 | 0.00 | 0.00 | 0.00 | 82 | 1011.1 |
| 20260505004552 | 61 | 253 | 3.0 | 5.0 | 0.00 | 0.00 | 0.00 | 81 | 1011.1 |
| 20260505004049 | 62 | 232 | 1.0 | 2.0 | 0.00 | 0.00 | 0.00 | 80 | 1010.8 |
| 20260505003546 | 62 | 234 | 3.0 | 3.0 | 0.00 | 0.00 | 0.00 | 81 | 1010.8 |
| 20260505003043 | 63 | 239 | 4.0 | 6.0 | 0.00 | 0.00 | 0.00 | 79 | 1011.1 |
| 20260505002543 | 63 | 245 | 4.0 | 6.0 | 0.00 | 0.00 | 0.00 | 75 | 1010.8 |
| 20260505002043 | 63 | 216 | 0.0 | 1.0 | 0.00 | 0.00 | 0.00 | 75 | 1010.8 |
| 20260505001540 | 63 | 291 | 0.0 | 1.0 | 0.00 | 0.00 | 0.00 | 76 | 1010.8 |
| 20260505001037 | 64 | 228 | 4.0 | 8.0 | 0.00 | 0.00 | 0.00 | 74 | 1010.8 |
| 20260505000534 | 64 | 233 | 1.0 | 1.0 | 0.00 | 0.00 | 0.00 | 72 | 1010.4 |
| 20260505000032 | 65 | 253 | 5.0 | 7.0 | 0.00 | 0.00 | 0.00 | 72 | 1010.4 |
| 20260504235528 | 66 | 239 | 5.0 | 6.0 | 0.00 | 0.00 | 0.00 | 73 | 1010.4 |
| 20260504235025 | 66 | 259 | 5.0 | 7.0 | 0.00 | 0.00 | 0.00 | 70 | 1010.4 |
| 20260504234522 | 66 | 222 | 4.0 | 6.0 | 0.00 | 0.00 | 0.00 | 69 | 1010.4 |
| 20260504234019 | 66 | 268 | 3.0 | 6.0 | 0.00 | 0.00 | 0.00 | 67 | 1010.4 |
| 20260504233514 | 66 | 62 | 0.0 | 1.0 | 0.00 | 0.00 | 0.00 | 66 | 1010.4 |
| 20260504233011 | 66 | 245 | 1.0 | 1.0 | 0.00 | 0.00 | 0.00 | 68 | 1010.4 |
| 20260504232508 | 66 | 213 | 1.0 | 2.0 | 0.00 | 0.00 | 0.00 | 67 | 1010.8 |
| 20260504232006 | 66 | 86 | 0.0 | 1.0 | 0.00 | 0.00 | 0.00 | 68 | 1010.4 |
| 20260504231502 | 65 | 319 | 2.0 | 6.0 | 0.00 | 0.00 | 0.00 | 67 | 1010.8 |
| 20260504230958 | 65 | 230 | 0.0 | 1.0 | 0.00 | 0.00 | 0.00 | 65 | 1010.4 |
| 20260504230455 | 65 | 21 | 3.0 | 3.0 | 0.00 | 0.00 | 0.00 | 68 | 1010.8 |
| 20260504225954 | 65 | 202 | 0.0 | 2.0 | 0.00 | 0.00 | 0.00 | 66 | 1010.8 |
| 20260504225450 | 65 | 236 | 3.0 | 5.0 | 0.00 | 0.00 | 0.00 | 71 | 1010.8 |
| 20260504224947 | 65 | 275 | 2.0 | 2.0 | 0.00 | 0.00 | 0.00 | 70 | 1010.8 |
| 20260504224444 | 66 | 17 | 4.0 | 7.0 | 0.00 | 0.00 | 0.00 | 71 | 1010.8 |
| 20260504223941 | 67 | 295 | 6.0 | 10.0 | 0.00 | 0.00 | 0.00 | 66 | 1010.8 |
| 20260504223437 | 67 | 243 | 3.0 | 5.0 | 0.00 | 0.00 | 0.00 | 65 | 1011.1 |
| 20260504222933 | 67 | 236 | 5.0 | 8.0 | 0.00 | 0.00 | 0.00 | 61 | 1011.1 |
| 20260504222431 | 68 | 248 | 7.0 | 10.0 | 0.00 | 0.00 | 0.00 | 67 | 1011.1 |
| 20260504221928 | 68 | 256 | 3.0 | 3.0 | 0.00 | 0.00 | 0.00 | 64 | 1011.1 |
| 20260504221425 | 68 | 275 | 2.0 | 3.0 | 0.00 | 0.00 | 0.00 | 62 | 1011.1 |
| 20260504220922 | 68 | 95 | 2.0 | 2.0 | 0.00 | 0.00 | 0.00 | 61 | 1011.1 |
| 20260504220419 | 68 | 253 | 2.0 | 3.0 | 0.00 | 0.00 | 0.00 | 65 | 1011.5 |
| 20260504215916 | 68 | 247 | 6.0 | 7.0 | 0.00 | 0.00 | 0.00 | 62 | 1011.5 |
| 20260504215413 | 68 | 227 | 1.0 | 2.0 | 0.00 | 0.00 | 0.00 | 64 | 1011.5 |
| 20260504214909 | 68 | 246 | 3.0 | 3.0 | 0.00 | 0.00 | 0.00 | 61 | 1011.5 |
| 20260504214405 | 68 | 212 | 1.0 | 2.0 | 0.00 | 0.00 | 0.00 | 63 | 1011.5 |
| 20260504213902 | 68 | 7 | 1.0 | 2.0 | 0.00 | 0.00 | 0.00 | 66 | 1011.5 |
| 20260504213358 | 68 | 233 | 7.0 | 10.0 | 0.00 | 0.00 | 0.00 | 61 | 1011.5 |
| 20260504212855 | 69 | 242 | 1.0 | 1.0 | 0.00 | 0.00 | 0.00 | 61 | 1011.5 |
| 20260504212351 | 69 | 230 | 2.0 | 3.0 | 0.00 | 0.00 | 0.00 | 58 | 1011.5 |
| 20260504211849 | 69 | 334 | 4.0 | 8.0 | 0.00 | 0.00 | 0.00 | 62 | 1011.5 |
| 20260504211345 | 69 | 257 | 3.0 | 3.0 | 0.00 | 0.00 | 0.00 | 63 | 1011.5 |
| 20260504210843 | 69 | 232 | 4.0 | 6.0 | 0.00 | 0.00 | 0.00 | 60 | 1011.5 |
| 20260504210339 | 69 | 312 | 3.0 | 5.0 | 0.00 | 0.00 | 0.00 | 59 | 1011.5 |
| 20260504205837 | 69 | 192 | 2.0 | 3.0 | 0.00 | 0.00 | 0.00 | 56 | 1011.5 |
| 20260504205335 | 69 | 245 | 3.0 | 5.0 | 0.00 | 0.00 | 0.00 | 57 | 1011.5 |
| 20260504204832 | 69 | 212 | 5.0 | 7.0 | 0.00 | 0.00 | 0.00 | 60 | 1011.5 |
| 20260504204331 | 69 | 247 | 4.0 | 6.0 | 0.00 | 0.00 | 0.00 | 56 | 1011.1 |
| 20260504203830 | 69 | 292 | 4.0 | 9.0 | 0.00 | 0.00 | 0.00 | 56 | 1011.5 |
| 20260504203326 | 69 | 256 | 3.0 | 5.0 | 0.00 | 0.00 | 0.00 | 54 | 1011.5 |
| 20260504202822 | 69 | 200 | 1.0 | 2.0 | 0.00 | 0.00 | 0.00 | 55 | 1011.1 |
| 20260504202320 | 68 | 148 | 0.0 | 1.0 | 0.00 | 0.00 | 0.00 | 58 | 1011.5 |
| 20260504201816 | 68 | 247 | 4.0 | 6.0 | 0.00 | 0.00 | 0.00 | 59 | 1011.5 |
| 20260504201313 | 68 | 235 | 2.0 | 3.0 | 0.00 | 0.00 | 0.00 | 59 | 1011.5 |
| 20260504200811 | 68 | 228 | 1.0 | 2.0 | 0.00 | 0.00 | 0.00 | 60 | 1011.5 |
| 20260504200307 | 68 | 311 | 2.0 | 3.0 | 0.00 | 0.00 | 0.00 | 55 | 1011.5 |
| 20260504195803 | 68 | 267 | 1.0 | 2.0 | 0.00 | 0.00 | 0.00 | 60 | 1011.5 |
| 20260504195259 | 68 | 245 | 6.0 | 7.0 | 0.00 | 0.00 | 0.00 | 60 | 1011.5 |
| 20260504194756 | 68 | 233 | 5.0 | 8.0 | 0.00 | 0.00 | 0.00 | 61 | 1011.5 |
| 20260504194252 | 68 | 232 | 3.0 | 3.0 | 0.00 | 0.00 | 0.00 | 63 | 1011.5 |
| 20260504193748 | 68 | 216 | 0.0 | 0.0 | 0.00 | 0.00 | 0.00 | 55 | 1011.5 |
| 20260504193246 | 68 | 237 | 1.0 | 1.0 | 0.00 | 0.00 | 0.00 | 60 | 1011.5 |
| 20260504192744 | 68 | 225 | 4.0 | 5.0 | 0.00 | 0.00 | 0.00 | 55 | 1011.5 |
| 20260504192242 | 68 | 205 | 1.0 | 2.0 | 0.00 | 0.00 | 0.00 | 57 | 1011.5 |
| 20260504191741 | 69 | 240 | 2.0 | 3.0 | 0.00 | 0.00 | 0.00 | 58 | 1011.5 |
| 20260504191237 | 69 | 237 | 1.0 | 2.0 | 0.00 | 0.00 | 0.00 | 59 | 1011.5 |
| 20260504190733 | 69 | 262 | 1.0 | 2.0 | 0.00 | 0.00 | 0.00 | 57 | 1011.5 |
| 20260504190229 | 69 | 237 | 2.0 | 2.0 | 0.00 | 0.00 | 0.00 | 56 | 1011.5 |
| 20260504185726 | 69 | 225 | 2.0 | 3.0 | 0.00 | 0.00 | 0.00 | 54 | 1011.8 |
| 20260504185223 | 68 | 219 | 0.0 | 1.0 | 0.00 | 0.00 | 0.00 | 56 | 1011.5 |
| 20260504184719 | 68 | 355 | 2.0 | 3.0 | 0.00 | 0.00 | 0.00 | 55 | 1011.5 |
| 20260504184215 | 68 | 272 | 3.0 | 3.0 | 0.00 | 0.00 | 0.00 | 58 | 1011.5 |
| 20260504183711 | 68 | 228 | 0.0 | 1.0 | 0.00 | 0.00 | 0.00 | 60 | 1011.8 |
| 20260504183208 | 68 | 246 | 1.0 | 1.0 | 0.00 | 0.00 | 0.00 | 59 | 1011.8 |
| 20260504182706 | 67 | 226 | 2.0 | 2.0 | 0.00 | 0.00 | 0.00 | 60 | 1011.8 |
| 20260504182203 | 68 | 230 | 3.0 | 3.0 | 0.00 | 0.00 | 0.00 | 59 | 1011.8 |
| 20260504181700 | 67 | 248 | 1.0 | 3.0 | 0.00 | 0.00 | 0.00 | 55 | 1012.1 |
| 20260504181158 | 66 | 240 | 2.0 | 2.0 | 0.00 | 0.00 | 0.00 | 56 | 1011.8 |
| 20260504180657 | 66 | 208 | 0.0 | 1.0 | 0.00 | 0.00 | 0.00 | 64 | 1011.8 |
| 20260504180155 | 66 | 233 | 8.0 | 11.0 | 0.00 | 0.00 | 0.00 | 61 | 1011.8 |
| 20260504175652 | 66 | 224 | 4.0 | 7.0 | 0.00 | 0.00 | 0.00 | 59 | 1011.8 |
| 20260504175148 | 65 | 242 | 3.0 | 6.0 | 0.00 | 0.00 | 0.00 | 60 | 1011.8 |
| 20260504174647 | 64 | 210 | 2.0 | 3.0 | 0.00 | 0.00 | 0.00 | 60 | 1011.8 |
| 20260504174143 | 64 | 249 | 6.0 | 8.0 | 0.00 | 0.00 | 0.00 | 64 | 1011.8 |
| 20260504173640 | 64 | 226 | 2.0 | 3.0 | 0.00 | 0.00 | 0.00 | 64 | 1011.8 |
| 20260504173138 | 64 | 227 | 1.0 | 2.0 | 0.00 | 0.00 | 0.00 | 62 | 1011.8 |
| 20260504172634 | 63 | 193 | 3.0 | 6.0 | 0.00 | 0.00 | 0.00 | 67 | 1011.5 |
| 20260504172131 | 63 | 308 | 2.0 | 3.0 | 0.00 | 0.00 | 0.00 | 67 | 1011.8 |
| 20260504171627 | 63 | 260 | 3.0 | 5.0 | 0.00 | 0.00 | 0.00 | 72 | 1011.8 |
| 20260504171125 | 63 | 159 | 0.0 | 1.0 | 0.00 | 0.00 | 0.00 | 74 | 1011.5 |
| 20260504170621 | 63 | 243 | 5.0 | 7.0 | 0.00 | 0.00 | 0.00 | 71 | 1011.5 |
| 20260504170118 | 63 | 290 | 1.0 | 2.0 | 0.00 | 0.00 | 0.00 | 71 | 1011.5 |
| 20260504151004 | 57 | 180 | 0.0 | 1.0 | 0.00 | 0.00 | 0.00 | 86 | 1011.5 |
| 20260504150501 | 57 | 193 | 0.0 | 1.0 | 0.00 | 0.00 | 0.00 | 87 | 1011.5 |
| 20260504140927 | 53 | 234 | 1.0 | 2.0 | 0.00 | 0.00 | 0.00 | 96 | 1011.1 |
| 20260504140423 | 53 | 234 | 0.0 | 1.0 | 0.00 | 0.00 | 0.00 | 97 | 1011.5 |
| 20260504130348 | 53 | 157 | 0.0 | 0.0 | 0.00 | 0.00 | 0.00 | 98 | 1010.8 |
| 20260504120311 | 53 | 142 | 0.0 | 0.0 | 0.00 | 0.00 | 0.00 | 97 | 1010.8 |
| 20260504110235 | 53 | 234 | 0.0 | 0.0 | 0.00 | 0.00 | 0.00 | 98 | 1010.4 |
| 20260504100159 | 55 | 227 | 0.0 | 0.0 | 0.00 | 0.00 | 0.00 | 96 | 1010.4 |